Location: Malvern Link
(52.1333°N, 2.3000°W)
Time: 14:41:02
(UTC+00:00)

SO-50 - Pass Details

Date: 02 July 2022
Orbit: 585 x 698 km, 64.6° (Epoch: 11 August)

Event Time Altitude Azimuth Distance (km) Brightness Sun altitude
Exits shadow 02:23:02 - 257° (WSW) 2,783 ? -9.6°
Reaches altitude 10° 02:24:57 10° 265° (W) 2,100 ? -9.5°
Maximum altitude 02:29:18 34° 330° (NNW) 1,134 ? -9.2°
Drops below altitude 10° 02:33:46 10° 36° (NE) 2,156 ? -8.8°
Sets 02:36:21 0° 45° (NE) 3,083 ? -8.6°
